Weather observations for the past three days for
Camarillo, Camarillo Airport
Imperial (Metric)
Date Time (pdt) Wind (mph) Vis. (mi.) Weather Sky Cond. Temperature (ºF) Relative Humidity Wind Chill (°F) Heat Index (°F) Pressure Precipitation (in)
Air Dwpt 6 hour altimeter (in) sea level (mb) 1 hr 3 hr 6 hr
Max. Min.
16 04:55 Calm 10.00 Fair CLR 64.9 60.1 66.9 64 84% 29.96 1015.4
16 03:55 Calm 10.00 Fair CLR 64.9 60.1 84% 29.96 1015.2
16 02:55 SE 3 10.00 Fair CLR 64.9 60.1 84% 29.96 1015.2
16 01:55 W 3 10.00 Fair CLR 66 61 84% 29.96 1015.2
16 00:55 NW 3 10.00 Fair CLR 66.9 62.1 84% 29.96 1015.4
15 23:55 Calm 10.00 Fair CLR 66.9 62.1 84% 29.97 1015.7
15 22:55 NW 5 10.00 Fair CLR 66.9 62.1 75.9 66.9 84% 29.97 1015.6
15 21:55 W 3 10.00 Fair CLR 66.9 62.1 84% 29.96 1015.3
15 20:55 W 5 10.00 Fair CLR 66.9 62.1 84% 29.95 1014.9
15 19:55 W 5 10.00 Fair CLR 69.1 62.1 78% 29.94 1014.6
15 18:55 W 5 10.00 Fair CLR 72 63 73% 29.93 1014.4
15 17:55 W 9 10.00 Fair CLR 75 63 66% 77 29.94 1014.5
15 16:55 W 13 10.00 Fair CLR 75 64 79 75 69% 77 29.94 1014.7
15 15:55 W 10 10.00 Fair CLR 75.9 64.9 69% 78 29.95 1015.1
15 14:55 W 10 10.00 Fair CLR 78.1 64.9 64% 80 29.98 1015.8
15 13:55 W 12 10.00 Fair CLR 78.1 64.9 64% 80 30 1016.5
15 12:55 W 9 G 17 10.00 Fair CLR 79 64.9 62% 81 30.02 1017.4
15 11:55 W 10 10.00 Fair CLR 78.1 64 62% 80 30.04 1017.9
15 10:55 SW 9 10.00 Fair CLR 75 64.9 75.9 64.9 71% 77 30.05 1018.2
15 09:55 Vrbl 3 8.00 Fair CLR 73.9 64.9 74% 30.05 1018.5
15 08:55 W 5 7.00 Overcast OVC009 69.1 64 84% 30.06 1018.7
15 07:55 W 3 7.00 Overcast OVC008 68 63 84% 30.06 1018.6
15 06:55 NW 3 7.00 Overcast OVC008 66 62.1 87% 30.04 1018.1
15 05:55 NE 3 7.00 Overcast OVC007 66 61 84% 30.04 1017.9
15 04:55 Calm 8.00 Overcast OVC007 64.9 61 66.9 64 87% 30.05 1018.2
15 03:55 SW 3 8.00 Overcast OVC007 66 61 84% 30.03 1017.7
15 02:55 W 5 7.00 Overcast OVC007 66 62.1 87% 30.02 1017.5
15 01:55 W 5 6.00 Fog/Mist OVC008 66 62.1 87% 30.02 1017.3
15 00:55 W 5 7.00 A Few Clouds FEW010 64.9 61 87% 30.02 1017.5
14 23:55 W 6 8.00 Partly Cloudy SCT008 66 62.1 87% 30.03 1017.6
14 22:55 NW 3 9.00 Fair CLR 66.9 62.1 73 66 84% 30.03 1017.6
14 21:55 W 3 9.00 Fair CLR 66.9 62.1 84% 30.03 1017.6
14 20:55 NW 6 9.00 Fair CLR 66 62.1 87% 30.02 1017.3
14 19:55 W 5 10.00 Mostly Cloudy BKN010 66.9 62.1 84% 30.01 1017.0
14 18:55 W 6 10.00 A Few Clouds FEW011 68 62.1 81% 30.01 1017.1
14 17:55 W 8 10.00 Fair CLR 71.1 63 76% 30.01 1016.9
14 16:55 W 10 10.00 Fair CLR 73 63 79 71.1 71% 30.01 1016.9
14 15:55 SW 9 G 21 10.00 Fair CLR 75 63 66% 77 30.01 1017.1
14 14:55 W 14 10.00 Fair CLR 75 64 69% 77 30.03 1017.7
14 13:55 W 10 10.00 Fair CLR 75.9 64 67% 78 30.03 1017.8
14 12:55 SW 9 10.00 Fair CLR 77 64 64% 79 30.05 1018.2
14 11:55 SW 6 10.00 Fair CLR 75.9 64.9 69% 78 30.06 1018.6
14 10:55 SW 7 10.00 Mostly Cloudy BKN010 71.1 64 71.1 64 79% 30.07 1019.2
14 09:55 W 3 9.00 Overcast OVC007 68 63 84% 30.08 1019.2
14 08:55 Vrbl 3 9.00 Overcast OVC006 66.9 62.1 84% 30.07 1019.1
14 07:55 W 3 5.00 Fog/Mist OVC005 66 62.1 87% 30.06 1018.8
14 06:55 Calm 5.00 Fog/Mist OVC004 64.9 61 87% 30.05 1018.3
14 05:55 W 5 2.50 Fog/Mist OVC003 64.9 61 87% 30.03 1017.7
14 04:55 Calm 5.00 Fog/Mist OVC005 64.9 61 66.9 64.9 87% 30.02 1017.3
14 03:55 Calm 2.00 Fog/Mist OVC004 64.9 62.1 90% 30 1016.8
14 02:55 SW 6 4.00 Fog/Mist OVC004 66 62.1 87% 29.99 1016.4
14 01:55 W 6 4.00 Fog/Mist OVC004 66 62.1 87% 29.99 1016.3
14 00:55 SW 5 10.00 Fair CLR 66 62.1 87% 29.99 1016.4
13 23:55 SW 3 10.00 Fair CLR 66 62.1 87% 29.99 1016.2
13 22:55 NW 7 10.00 Fair CLR 66.9 62.1 75.9 66.9 84% 29.98 1016.0
13 21:55 N 3 10.00 Fair CLR 68 63 84% 29.98 1015.9
13 20:55 NW 3 10.00 Overcast OVC008 68 63 84% 29.97 1015.8
13 19:55 NW 7 10.00 Overcast OVC010 69.1 63 81% 29.97 1015.6
13 18:55 SW 6 10.00 Mostly Cloudy BKN011 70 64.9 84% 29.96 1015.2
13 17:55 SW 15 10.00 Fair CLR 73 64 74% 29.93 1014.5
13 16:55 SW 7 10.00 Fair CLR 73.9 64 80.1 70 71% 29.91 1013.8
13 15:55 W 9 G 18 10.00 Fair CLR 75 66 74% 76 29.94 1014.7
13 14:55 SW 12 10.00 Fair CLR 80.1 66.9 64% 82 29.94 1014.6
13 13:55 W 9 9.00 A Few Clouds FEW013 78.1 66 67% 80 29.96 1015.3
13 12:55 SW 9 G 20 8.00 Overcast OVC013 73.9 66 76% 29.99 1016.4
13 11:55 S 8 8.00 Overcast OVC011 73 66 79% 29.99 1016.5
13 10:55 S 7 7.00 Overcast OVC009 70 64 71.1 64.9 82% 29.99 1016.2
13 09:55 SW 7 9.00 Overcast OVC011 70 63 79% 29.97 1015.5
13 08:55 S 5 7.00 Overcast OVC007 68 63 84% 29.96 1015.3
13 07:55 Calm 5.00 Overcast with Haze OVC005 66.9 62.1 84% 29.95 1014.8
13 06:55 Calm 4.00 Fog/Mist OVC005 66 62.1 87% 29.93 1014.4
13 05:55 Vrbl 3 5.00 Fog/Mist OVC005 64.9 61 87% 29.92 1014.0
Date Time (pdt) Wind (mph) Vis. (mi.) Weather Sky Cond. Air Dwpt Max. Min. Relative Humidity Wind Chill (°F) Heat Index (°F) altimeter (in) sea level (mb) 1 hr 3 hr 6 hr
6 hour
Temperature (ºF) Pressure Precipitation (in)